Location: Rumah Long Bangan
(2.8362°N, 113.7519°E)
Time: 06:00:40
(UTC+00:00)

YAOGAN 1 - Pass Details

Date: 24 October 2021
Orbit: 618 x 620 km, 97.9° (Epoch: 28 November)

Event Time Altitude Azimuth Distance (km) Brightness Sun altitude
Rises 12:02:07 0° 182° (S) 2,891 6.2 -28.2°
Reaches altitude 10° 12:04:24 10° 189° (S) 1,983 5.4 -28.8°
Maximum altitude 12:08:26 40° 258° (WSW) 921 3.8 -29.7°
Drops below altitude 10° 12:12:28 10° 328° (NNW) 1,978 5.3 -30.7°
Sets 12:14:45 0° 336° (NNW) 2,881 6.1 -31.3°
